Cumberland, WV

7:16 PM EDT on June 20, 2018 (GMT -0400)
Greater Cumberland Regional

Weather History for KCBE - August, 2017

Change the Weather History Date:

Sunday, August 13, 2017

  Actual Average (WUND) Record (WUND)
Temperature  
Mean Temperature 70 °F -  
Max Temperature 82 °F - - (-1)
Min Temperature 59 °F - - (-1)
Cooling Degree Days 6    
Growing Degree Days 20 (Base 50)    
Moisture  
Dew Point 60 °F    
Average Humidity 72    
Maximum Humidity 100    
Minimum Humidity 42    
Precipitation  
Precipitation 0.00 in - - ()
Sea Level Pressure  
Sea Level Pressure 30.06 in    
Wind  
Wind Speed 2 mph (NNE)    
Max Wind Speed 7 mph    
Max Gust Speed -    
Visibility 10 miles    
Events      
Averages and records for this station are not official NWS values.
T = Trace of Precipitation, MM = Missing Value Source: NWS Daily Summary

Daily Weather History Graph

Daily Weather History Graph

Search for Another Location

Airport or City:

Astronomy

Aug. 13, 2017 Rise Set
Actual Time 6:25 AM EDT 8:13 PM EDT
Civil Twilight 5:56 AM EDT 8:42 PM EDT
Nautical Twilight 5:21 AM EDT 9:17 PM EDT
Astronomical Twilight 4:43 AM EDT 9:54 PM EDT
Moon 11:47 PM EDT (8/13) 12:22 PM EDT (8/13)
Length of Visible Light 14h 45m
Length of Day
13h 47m
Waning Gibbous, 65% of the Moon is Illuminated
Aug 13
Waning Gibbous
Aug 14
Last Quarter
Aug 21
New
Aug 29
First Quarter
Sep 6
Full

Hourly Weather History & Observations

Time (EDT) Temp. Heat Index Dew Point Humidity Pressure Visibility Wind Dir Wind Speed Gust Speed Precip Events Conditions
12:10 AM 68.0 °F - 60.8 °F 78% 30.02 in 10.0 mi North 3.5 mph - N/A   Clear
12:30 AM 69.8 °F - 59.0 °F 68% 30.02 in 10.0 mi NNW 3.5 mph - N/A   Clear
12:50 AM 68.0 °F - 59.0 °F 73% 30.02 in 10.0 mi NW 4.6 mph - N/A   Clear
1:10 AM 66.2 °F - 60.8 °F 83% 30.02 in 10.0 mi NW 4.6 mph - N/A   Clear
1:30 AM 64.4 °F - 60.8 °F 88% 30.02 in 10.0 mi NW 3.5 mph - N/A   Clear
1:50 AM 64.4 °F - 59.0 °F 83% 30.02 in 10.0 mi NNW 3.5 mph - N/A   Clear
2:10 AM 62.6 °F - 59.0 °F 88% 30.02 in 10.0 mi Calm Calm - N/A   Clear
2:30 AM 62.6 °F - 59.0 °F 88% 30.02 in 10.0 mi ENE 4.6 mph - N/A   Clear
2:50 AM 60.8 °F - 60.8 °F 100% 30.03 in 10.0 mi Calm Calm - N/A   Clear
3:10 AM 62.6 °F - 60.8 °F 94% 30.03 in 10.0 mi Calm Calm - N/A   Clear
3:30 AM 60.8 °F - 59.0 °F 94% 30.03 in 10.0 mi Calm Calm - N/A   Clear
3:50 AM 60.8 °F - 59.0 °F 94% 30.03 in 10.0 mi NNW 3.5 mph - N/A   Clear
4:10 AM 60.8 °F - 60.8 °F 100% 30.03 in 10.0 mi Calm Calm - N/A   Clear
4:30 AM 60.8 °F - 60.8 °F 100% 30.03 in 10.0 mi NW 4.6 mph - N/A   Clear
4:50 AM 59.0 °F - 59.0 °F 100% 30.03 in 1.0 mi Calm Calm - N/A   Unknown
5:10 AM 59.0 °F - 59.0 °F 100% 30.03 in 4.0 mi Calm Calm - N/A   Clear
5:30 AM 59.0 °F - 59.0 °F 100% 30.04 in 10.0 mi NE 4.6 mph - N/A   Clear
5:50 AM 59.0 °F - 59.0 °F 100% 30.04 in 10.0 mi North 3.5 mph - N/A   Clear
6:10 AM 59.0 °F - 59.0 °F 100% 30.05 in 10.0 mi Calm Calm - N/A   Clear
6:30 AM 59.0 °F - 59.0 °F 100% 30.05 in 7.0 mi Calm Calm - N/A   Clear
6:50 AM 59.0 °F - 59.0 °F 100% 30.06 in 10.0 mi North 3.5 mph - N/A   Clear
7:10 AM 59.0 °F - 59.0 °F 100% 30.07 in 5.0 mi Calm Calm - N/A   Clear
7:30 AM 59.0 °F - 59.0 °F 100% 30.07 in 10.0 mi Calm Calm - N/A   Clear
7:50 AM 60.8 °F - 60.8 °F 100% 30.07 in 10.0 mi Calm Calm - N/A   Clear
8:10 AM 62.6 °F - 59.0 °F 88% 30.08 in 10.0 mi Calm Calm - N/A   Clear
8:30 AM 62.6 °F - 59.0 °F 88% 30.07 in 10.0 mi Calm Calm - N/A   Clear
8:50 AM 64.4 °F - 60.8 °F 88% 30.08 in 10.0 mi Calm Calm - N/A   Clear
9:10 AM 64.4 °F - 60.8 °F 88% 30.08 in 10.0 mi Calm Calm - N/A   Clear
9:30 AM 68.0 °F - 60.8 °F 78% 30.09 in 10.0 mi Calm Calm - N/A   Clear
9:50 AM 69.8 °F - 60.8 °F 73% 30.09 in 10.0 mi Calm Calm - N/A   Clear
10:10 AM 71.6 °F - 60.8 °F 69% 30.08 in 10.0 mi Calm Calm - N/A   Clear
10:30 AM 73.4 °F - 60.8 °F 65% 30.09 in 10.0 mi Calm Calm - N/A   Clear
10:50 AM 73.4 °F - 60.8 °F 65% 30.09 in 10.0 mi NNE 3.5 mph - N/A   Clear
11:10 AM 75.2 °F - 62.6 °F 65% 30.09 in 10.0 mi NNE 3.5 mph - N/A   Clear
11:30 AM 77.0 °F - 60.8 °F 57% 30.09 in 10.0 mi Calm Calm - N/A   Clear
11:50 AM 77.0 °F - 60.8 °F 57% 30.09 in 10.0 mi North 6.9 mph - N/A   Scattered Clouds
12:10 PM 77.0 °F - 60.8 °F 57% 30.08 in 10.0 mi Calm Calm - N/A   Scattered Clouds
12:30 PM 78.8 °F - 60.8 °F 54% 30.08 in 10.0 mi NNW 3.5 mph - N/A   Scattered Clouds
12:50 PM 78.8 °F - 60.8 °F 54% 30.08 in 10.0 mi NNW 3.5 mph - N/A   Scattered Clouds
1:10 PM 80.6 °F 81.5 °F 60.8 °F 51% 30.07 in 10.0 mi Calm Calm - N/A   Clear
1:30 PM 80.6 °F 81.5 °F 60.8 °F 51% 30.07 in 10.0 mi East 5.8 mph - N/A   Scattered Clouds
1:50 PM 82.4 °F 82.9 °F 60.8 °F 48% 30.07 in 10.0 mi East 3.5 mph - N/A   Scattered Clouds
2:10 PM 80.6 °F 81.5 °F 60.8 °F 51% 30.07 in 10.0 mi NE 4.6 mph - N/A   Scattered Clouds
2:30 PM 82.4 °F 82.9 °F 60.8 °F 48% 30.07 in 10.0 mi Calm Calm - N/A   Scattered Clouds
2:50 PM 80.6 °F 81.1 °F 59.0 °F 48% 30.06 in 10.0 mi NE 3.5 mph - N/A   Mostly Cloudy
3:10 PM 80.6 °F 81.5 °F 60.8 °F 51% 30.06 in 10.0 mi ESE 3.5 mph - N/A   Scattered Clouds
3:30 PM 82.4 °F 82.5 °F 59.0 °F 45% 30.06 in 10.0 mi East 3.5 mph - N/A   Scattered Clouds
3:50 PM 80.6 °F 81.1 °F 59.0 °F 48% 30.06 in 10.0 mi ENE 6.9 mph - N/A   Scattered Clouds
4:10 PM 82.4 °F 82.5 °F 59.0 °F 45% 30.05 in 10.0 mi Calm Calm - N/A   Scattered Clouds
4:30 PM 82.4 °F 82.0 °F 57.2 °F 42% 30.05 in 10.0 mi ENE 6.9 mph - N/A   Clear
4:50 PM 82.4 °F 82.0 °F 57.2 °F 42% 30.05 in 10.0 mi ENE 3.5 mph - N/A   Scattered Clouds
5:10 PM 82.4 °F 82.0 °F 57.2 °F 42% 30.05 in 10.0 mi ENE 3.5 mph - N/A   Scattered Clouds
5:30 PM 82.4 °F 82.5 °F 59.0 °F 45% 30.05 in 10.0 mi ENE 4.6 mph - N/A   Overcast
5:50 PM 82.4 °F 82.5 °F 59.0 °F 45% 30.05 in 10.0 mi ESE 4.6 mph - N/A   Mostly Cloudy
6:10 PM 82.4 °F 82.9 °F 60.8 °F 48% 30.05 in 10.0 mi East 4.6 mph - N/A   Mostly Cloudy
6:30 PM 80.6 °F 81.5 °F 60.8 °F 51% 30.05 in 10.0 mi ESE 3.5 mph - N/A   Mostly Cloudy
6:50 PM 80.6 °F 81.5 °F 60.8 °F 51% 30.05 in 10.0 mi Calm Calm - N/A   Mostly Cloudy
7:10 PM 78.8 °F - 60.8 °F 54% 30.05 in 10.0 mi Calm Calm - N/A   Scattered Clouds
7:30 PM 78.8 °F - 60.8 °F 54% 30.05 in 10.0 mi East 3.5 mph - N/A   Mostly Cloudy
7:50 PM 77.0 °F - 60.8 °F 57% 30.06 in 10.0 mi Calm Calm - N/A   Overcast
8:10 PM 77.0 °F - 60.8 °F 57% 30.06 in 10.0 mi Calm Calm - N/A   Overcast
8:30 PM 77.0 °F - 60.8 °F 57% 30.07 in 10.0 mi West 3.5 mph - N/A   Mostly Cloudy
8:50 PM 77.0 °F - 60.8 °F 57% 30.07 in 10.0 mi NNW 3.5 mph - N/A   Scattered Clouds
9:10 PM 71.6 °F - 62.6 °F 73% 30.07 in 10.0 mi Calm Calm - N/A   Clear
9:30 PM 71.6 °F - 62.6 °F 73% 30.08 in 10.0 mi Calm Calm - N/A   Mostly Cloudy
9:50 PM 71.6 °F - 62.6 °F 73% 30.09 in 10.0 mi Calm Calm - N/A   Mostly Cloudy
10:10 PM 69.8 °F - 62.6 °F 78% 30.09 in 10.0 mi Calm Calm - N/A   Scattered Clouds
10:30 PM 71.6 °F - 62.6 °F 73% 30.09 in 10.0 mi Calm Calm - N/A   Clear
10:50 PM 69.8 °F - 62.6 °F 78% 30.09 in 10.0 mi Calm Calm - N/A   Clear
11:10 PM 68.0 °F - 62.6 °F 83% 30.09 in 10.0 mi Calm Calm - N/A   Scattered Clouds
11:30 PM 68.0 °F - 62.6 °F 83% 30.10 in 10.0 mi Calm Calm - N/A   Mostly Cloudy
11:50 PM 64.4 °F - 64.4 °F 100% 30.09 in 10.0 mi Calm Calm - N/A   Scattered Clouds